Regional Weather Roundup
Issued by NWS Sioux Falls, SD

Home | Current Version | Previous Version | Text Only | Print | Product List | Glossary On
Versions: 1 2 3 4 5 6 7 8 9 10 11 12 13 14 15 16 17 18 19 20 21 22 23 24 25 26 27 28 29 30 31 32 33 34 35 36 37 38 39 40 41 42 43 44 45 46 47 48 49 50
559
ASUS43 KFSD 282010
RWRFSD

WEATHER ROUNDUP FOR SE SOUTH DAKOTA/SW MINNESOTA/NW IOWA
NATIONAL WEATHER SERVICE SIOUX FALLS SD
300 PM CDT SAT MAY 28 2016

NOTE: "FAIR" INDICATES FEW OR NO CLOUDS BELOW 12,000 FEET WITH NO
SIGNIFICANT WEATHER AND OR OBSTRUCTIONS TO VISIBILITY.


SDZ038>040-050-052>070-282100-
SOUTHEAST SOUTH DAKOTA

CITY           SKY/WX    TMP DP  RH WIND       PRES   REMARKS
BROOKINGS      CLOUDY    62  58  86 NE12      29.79S
CHAMBERLAIN    CLOUDY    69  61  75 N9        29.85S
HURON          LGT RAIN  64  60  87 N7        29.82R
MADISON        MOCLDY    63  63 100 NE13G20   29.80R
MITCHELL       LGT RAIN  64  60  87 NW13      29.82R
SIOUX FALLS    CLOUDY    67  58  72 N14       29.76R
WINNER         FAIR      71  55  56 NW13      29.86S
YANKTON        CLOUDY    63  55  77 NW18      29.78R
$$

MNZ071-072-080-081-089-090-097-098-282100-
SOUTHWEST MINNESOTA

CITY           SKY/WX    TMP DP  RH WIND       PRES   REMARKS
FAIRMONT       CLOUDY    64  61  88 CALM      29.77R THUNDER
JACKSON        CLOUDY    68  59  73 VRB6      29.77S
LUVERNE        CLOUDY    63  59  88 N8        29.77S
MARSHALL       LGT RAIN  63  60  90 N12       29.79S
MONTEVIDEO     DRIZZLE   63  61  94 N6        29.81F
PIPESTONE      CLOUDY    64  57  77 NE6       29.78F
REDWOOD FALLS  CLOUDY    62  59  90 NW6       29.78S
TRACY          RAIN      63  60  91 NE7       29.79S
WINDOM         CLOUDY    66  61  82 CALM      29.77F
WORTHINGTON    LGT RAIN  66  61  84 N7        29.77S
$$

IAZ001>003-012>014-020>022-031-032-NEZ013-014-SDZ071-282100-
NORTHWEST IOWA

CITY           SKY/WX    TMP DP  RH WIND       PRES   REMARKS
CHEROKEE       PTSUNNY   72  60  67 S7        29.74F
DENISON        PTSUNNY   66  57  72 SW8G24    29.75R
ESTHERVILLE    MOSUNNY   70  64  83 N12       29.74F
LE MARS        PTSUNNY   72  59  64 S8        29.74F
ORANGE CITY    PTSUNNY   72  59  64 SW6       29.74F
SHELDON        PTSUNNY   72  57  60 SW8       29.74S
SIOUX CITY     PTSUNNY   71  58  63 S5        29.73S
SPENCER        CLOUDY    69  57  65 VRB6      29.74F
STORM LAKE       N/A     72  57  60 SW16G22   29.76S
$$

ABBREVIATIONS USED IN REMARKS
   TC - TEMPERATURE IN CELSIUS
  WCI - WIND CHILL INDEX
   HX - HEAT INDEX
  VSB - VISIBILITY





USA.gov is the U.S. government's official web portal to all federal, state and local government web resources and services.